Regional Weather Roundup
Issued by NWS

Home | Current Version | Previous Version | Text Only | Print | Product List | Glossary On
Versions: 1 2 3 4 5 6 7 8 9 10 11 12 13 14 15 16 17 18 19 20 21 22 23 24 25 26 27 28 29 30 31 32 33 34 35 36 37 38 39 40 41 42 43 44 45 46 47 48 49 50
000
ASUS44 KFWD 270703
RWRTX
NORTH TEXAS HOURLY WEATHER ROUNDUP
NATIONAL WEATHER SERVICE FORT WORTH TX
200 AM CDT WED MAY 27 2015

NOTE: "FAIR" INDICATES FEW OR NO CLOUDS BELOW 12,000 FEET WITH NO
SIGNIFICANT WEATHER AND/OR OBSTRUCTIONS TO VISIBILITY.

TXZ118-119-270800-
DALLAS/FORT WORTH METROPLEX

CITY           SKY/WX    TMP DP  RH WIND       PRES   REMARKS
DFW AIRPORT    CLOUDY    67  58  72 SE14G20   29.92F
DALLAS LOVE    TSTM      70  59  68 S32G47    29.94F
FTW MEACHAM    CLOUDY    70  59  68 S10       29.95F
DAL-EXECUTIVE    N/A    N/A N/A N/A MISG      29.97F THUNDER
FTW-ALLIANCE   CLOUDY    68  59  73 S9        29.93F
FTW-NAS-JRB    CLOUDY    70  59  68 S15       29.96S THUNDER
ARLINGTON      CLOUDY    68  59  73 SE17G28   29.94F
GRAND PRAIRIE  CLOUDY    66  62  86 SE15G25   29.93F
ADDISON        CLOUDY    72  60  67 S15G28    29.94F
MESQUITE       CLOUDY    65  62  89 S25G33    30.05S
LANCASTER      TSTM      65  61  88 S13G18    30.09F
$$

TXZ091>094-102>105-117-120-121-131>134-270800-
NORTH CENTRAL TEXAS

CITY           SKY/WX    TMP DP  RH WIND       PRES   REMARKS
SHRMAN/DENISON CLOUDY    69  61  77 NE3       30.00S
GAINESVILLE    CLOUDY    65  60  85 SE3       29.98S
BRIDGEPORT     CLOUDY    64  64  97 CALM      29.98F
DECATUR        CLOUDY    67  56  68 S13G22    29.96S
DENTON         CLOUDY    69  58  67 S9        29.94F
MCKINNEY       CLOUDY    71  59  65 NE8       29.98R
ROCKWALL       TSTM     N/A N/A N/A S35G46    29.95F
TERRELL        TSTM      66  61  84 S14       30.08R
WAXAHACHIE     RAIN      64  64 100 SE14      30.03F
CLEBURNE       CLOUDY    66  64  94 SE16G22   30.01S
GRANBURY       CLOUDY    67  61  80 SE13      30.02R
$$

TXZ083>090-098>101-113>116-127>130-139>142-154-155-270800-
WESTERN NORTH TEXAS

CITY           SKY/WX    TMP DP  RH WIND       PRES   REMARKS
WICHITA FALLS  CLOUDY    65  61  87 S6        29.96R
WF-KICKAPOO    CLOUDY    66  62  85 S3        29.97R
VERNON         CLEAR     65  56  71 SW9       29.96F
ABILENE        CLEAR     66  60  81 SE12      30.01S
ABILENE-DYESS  PTCLDY    64  59  81 S10       30.00S
BRECKENRIDGE   MOCLDY    68  58  71 S16G23    29.98S
MINERAL WELLS  CLOUDY    65  59  81 S10       29.98R
STEPHENVILLE   CLOUDY    64  59  83 S8        30.07S
COMANCHE       CLOUDY    64  64 100 SE9       30.05F
COLEMAN        CLOUDY    69  66  91 SE6       30.04S THUNDER
BRADY          CLEAR     73  73 100 SE9       30.02F
$$

TXZ143>147-156>162-174-175-270800-
CENTRAL TEXAS

CITY           SKY/WX    TMP DP  RH WIND       PRES   REMARKS
WACO           CLOUDY    65  62  90 NE15      30.07F THUNDER
WACO-MCGREGOR    N/A    N/A N/A N/A MISG        N/A
HILLSBORO      TSTM     N/A N/A N/A E15G23    30.04F
CORSICANA      TSTM      66  63  90 W3G20     30.17R FOG
MEXIA          TSTM      63  63  98 N20G29    30.11F
HEARNE         CLOUDY    76  73  90 N10G16    30.10R FOG
TEMPLE         CLOUDY    64  61  88 NE8       30.08S
KILLEEN        RAIN      68  63  85 N7        30.07R FOG
KILLEEN-SKYLRK CLOUDY    70  59  68 E20       30.06S
FORT HOOD      LGT RAIN  67  63  86 E12G20    30.06S
LAMPASAS       CLOUDY    71  65  81 NE8       30.07R THUNDER
$$

TXZ095>097-106>112-122>126-135>138-148>153-164>167-270800-
EAST TEXAS

CITY           SKY/WX    TMP DP  RH WIND       PRES   REMARKS
PARIS          CLOUDY    72  59  64 S18G24    30.03S
MOUNT PLEASANT CLOUDY    68  62  81 S10       30.04F
GILMER         TSTM      65  64  95 S12G17    30.10F
MINEOLA        HVY RAIN  64  64 100 S17G26    30.07F
TYLER          TSTM      66  62  87 NW8       30.13F
LONGVIEW       HVY RAIN  65  63  93 NW16G33   30.10R VSB 1
ATHENS         TSTM      63  63 100 S3        30.16R
PALESTINE      HVY RAIN  65  64  94 N9G16     30.15R
JACKSONVILLE   TSTM      65  62  90 N13G26    30.13F
NACOGDOCHES    CLOUDY    72  70  94 CALM      30.06F
LUFKIN         CLOUDY    76  70  82 CALM      30.07R
$$

SUPPLEMENTAL OBSERVATIONS (CENTRAL)

CITY           SKY/WX    TMP DP  RH WIND       PRES   REMARKS
$$

SUPPLEMENTAL OBSERVATIONS (WEST)

CITY           SKY/WX    TMP DP  RH WIND       PRES   REMARKS
$$

SUPPLEMENTAL OBSERVATIONS (EAST)

CITY           SKY/WX    TMP DP  RH WIND       PRES   REMARKS
$$

SUPPLEMENTAL OBSERVATIONS ARE A COLLECTION OF AUTOMATED INSTRUMENTS
THAT ARE MAINTAINED BY A VARIETY OF FEDERAL AND STATE AGENCIES.
CERTAIN ELEMENTS...SUCH AS HUMIDITY VALUES AND SUSTAINED WIND
SPEEDS...MAY BE APPROXIMATED.



USA.gov is the U.S. government's official web portal to all federal, state and local government web resources and services.